ARIANE 5 R/B, 46116

Orbit data source: Space-Track

ARIANE 5 R/B, 46116 is space debris in HEO originally from a launch on Sat, 15 Aug 2020 UTC launched from the French Guiana (FRGUI). Debris objects in space refer to the collection of defunct objects orbiting the Earth. Examples of debris include non-operational satellites, rocket bodies, and fragments generated from explosions, collisions, or faulty payload assembly.

Loading next visibility...
Identifier
46116, 2020-056E
Orbit
HEO
Country
Flag of FRFR
Related business
Manufacturer
ArianeGroup
Mission
Spacecraft
Bus & Motor
ESC-A, Unknown motor
Mass
~5,000 kg wet, ~5,000 kg dry
Launch date (UTC)
2020-08-15 (6 years ago)
Launch vehicle
Unknown
Launch site
French Guiana (FRGUI)
Object type
Payload
Rocket body
Debris
Shape & HBR
Cyl + 1 Nozzle, 3.5 m
Radar Cross Section
41.627 m², Large (>1 m²)

Expand to show TLE details & history
Last TLE update: 3 days ago

TLE from 3 days ago
0 ARIANE 5 R/B
1 46116U 20056E   26170.83935857  .00006555  00000-0  15364-2 0  9997
2 46116   6.0720 306.0679 7192569 162.4573 249.4584  2.39651183 49842
Epoch: 2026-06-19T20:08Z
TLE epoch observation values (Epoch: 2026-06-19T20:08:40.580Z)
Latitude
0.00001°
Longitude
95.82795°
Altitude
29,831.012 km
Speed
2.262 km/s
True Right ascension
20h 24m 14s
True Declination
0° 00' 00"
Sunlit
Object was in daylight at epoch
Visualization orbit readout
Latitude
Unknown
Longitude
Unknown
Altitude
Unknown
Speed
Unknown
Apparent Right ascension
Unknown
Apparent Declination
Unknown
Sunlit
N/A
Visualization observer readout
Local Sidereal Time
21:29:47
Azimuth
Unknown
Elevation
Unknown
Doppler factor
Unknown
Orbital elements
Apogee altitude
34,184.294 km
Perigee altitude
245.435 km
Semi-major axis
23,593.001 km
Eccentricity
0.71926
Inclination
6.072°
RAAN
306.0679°
Arg. of periapsis
162.4573°
True anomaly
197.60022°
Mean anomaly
249.4584°
Eccentric anomaly
221.92395°
Mean motion
0.59892 °/min
Orbital period
601.08 mins
BSTAR
0.0015364
Loading maneuver chart data...
Computing Atmospheric mass density...
Loading historical data...
Loading historical data...
Loading historical data...
Loading historical data...
Loading historical data...
Loading historical data...
Loading historical data...
Other satellites on launch #56 in the year 2020 (2020-08-15 UTC)

Documentation

Showing up to 5 results
|